Probability
0 0 0 0 0 0 0 0 0 0 0 0 0 0 0 0 0 0 0 0 0 1 1 1 0 0 0 0 1 0 0 0 0 0 0 0 0 0 1 2 2 1 0
0 0 0 0 0 0 0 0 0 0 0 0 0 0 0 0 0 0 0 0 0 0 0 0 0 0 0 1 1 1 0 0 0 0 0 0 0 1 3 3 2 1 0
0 0 0 0 0 0 0 0 0 0 0 0 0 0 0 0 0 0 0 0 0 0 0 0 0 0 0 1 2 2 1 0 0 0 0 0 1 2 4 4 3 1 0
0 0 0 0 0 0 0 0 0 0 0 0 0 0 0 0 0 0 0 0 0 0 0 0 0 0 0 1 2 2 1 0 1 1 1 0 1 3 4 3 2 1 1
0 0 0 0 0 0 0 0 0 0 0 0 0 0 0 0 0 0 0 0 0 0 0 0 0 0 0 1 2 3 1 0 1 2 2 1 1 2 3 2 1 1 1
0 0 0 0 0 0 0 0 0 0 0 0 0 0 0 0 0 0 0 0 0 0 0 0 0 0 0 1 2 2 2 1 0 1 1 1 1 2 3 2 1 0 0
0 0 0 0 0 0 0 0 0 0 0 0 0 0 0 0 0 0 0 0 0 0 0 0 0 0 0 0 1 1 2 1 0 0 0 0 0 1 2 1 0 0 1
0 0 0 0 0 0 0 0 0 0 0 0 0 0 0 0 0 0 0 0 0 0 0 0 0 0 0 0 0 1 1 1 0 0 0 0 0 1 2 1 0 0 1
0 0 0 0 0 0 0 0 0 0 0 0 0 0 0 0 0 0 0 0 0 0 0 0 0 0 0 0 0 0 0 0 0 0 0 0 0 1 2 1 0 0 1
0 0 0 0 0 0 0 0 0 0 0 0 0 0 0 0 0 0 0 0 0 0 0 0 0 0 0 0 0 0 0 0 0 0 0 0 1 1 2 1 0 0 0
0 0 0 0 0 0 0 0 0 0 0 0 0 0 0 0 0 0 0 0 0 0 0 0 0 0 0 0 0 0 0 0 0 0 0 0 0 1 1 1 0 0 0
0 0 0 0 0 0 0 0 0 0 0 0 0 0 0 0 0 0 0 0 0 0 0 0 0 0 0 0 0 0 0 0 0 0 0 0 0 0 0 0 0 0 0
0 0 0 0 0 0 0 0 0 0 0 0 0 0 0 0 0 0 0 0 0 0 0 0 0 0 0 0 0 0 0 0 0 0 0 0 0 0 0 0 0 0 0
0 0 0 0 0 0 0 0 0 0 0 0 0 0 0 0 0 0 0 0 0 0 0 0 0 0 0 0 0 0 0 0 0 0 0 0 0 0 0 0 0 0 0
0 0 0 0 0 0 0 0 0 0 0 0 0 0 0 0 0 0 0 0 0 0 0 0 0 0 0 0 0 0 0 0 0 0 0 0 0 0 0 0 0 0 0
0 0 0 0 0 0 0 0 0 0 0 0 0 0 0 0 0 0 0 0 0 0 0 0 0 0 0 0 0 0 0 0 0 0 0 0 0 0 0 0 0 0 0
0 0 0 0 0 0 0 0 0 0 0 0 0 0 0 0 0 0 0 0 0 0 0 0 0 0 0 0 0 0 0 0 0 0 0 0 0 0 0 0 0 0 0
0 0 0 0 0 0 0 0 0 0 0 0 0 0 0 0 0 0 0 0 0 0 0 0 0 0 0 0 0 0 0 0 0 0 0 0 0 0 0 0 0 0 0
0 0 0 0 0 0 0 0 0 0 0 0 0 0 0 0 0 0 0 0 0 0 0 0 0 0 0 0 0 0 0 0 0 0 0 0 0 0 0 0 0 0 0
0 0 0 0 0 0 0 0 0 0 0 0 0 0 0 0 0 0 0 0 0 0 0 0 0 0 0 0 0 0 0 0 0 0 0 0 0 0 0 0 0 0 0
0 0 0 0 0 0 0 0 0 0 0 0 0 0 0 0 0 0 0 0 0 0 0 0 0 0 0 0 0 0 0 0 0 0 0 0 0 0 0 0 0 0 0
0 0 0 0 0 0 0 0 0 0 0 0 0 0 0 0 0 0 0 0 0 0 0 0 0 0 0 0 0 0 0 0 0 0 0 0 0 0 0 0 0 0 0
0 0 0 0 0 0 0 0 0 0 0 0 0 0 0 0 0 0 0 0 0 0 0 0 0 0 0 0 0 0 0 0 0 0 0 0 0 0 0 0 0 0 0
0 0 0 0 0 0 0 0 0 0 0 0 0 0 0 0 0 0 0 0 0 0 0 0 0 0 0 0 0 0 0 0 0 0 0 0 0 0 0 0 0 0 0
0 0 0 0 0 0 0 0 0 0 0 0 0 0 0 0 0 0 0 0 0 0 0 0 0 0 0 0 0 0 0 0 0 0 0 0 0 0 0 0 0 0 0
0 0 0 0 0 0 0 0 0 0 0 0 0 0 0 0 0 0 0 0 0 0 0 0 0 0 0 0 0 0 0 0 0 0 0 0 0 0 0 0 0 0 0
Wind_Speed
1 1 1 1 1 1 1 1 1 1 1 2 2 2 2 1 1 2 2 4 4 3 3 3 3 3 2 2 2 2 3 3 3 3 4 4 4 4 5 4 5 5 5
2 2 1 1 1 1 1 1 1 1 1 1 1 2 1 1 1 1 1 3 5 4 3 3 3 3 3 3 3 3 3 3 4 4 4 4 4 5 5 5 5 5 5
2 2 2 1 1 1 1 1 1 1 1 1 1 1 1 1 1 1 1 1 2 4 4 4 4 4 3 4 3 3 4 4 4 4 4 5 5 5 5 6 5 6 6
2 2 2 2 2 2 2 2 1 1 1 1 1 0 0 0 0 0 1 1 1 1 3 4 4 5 4 4 4 4 4 4 4 4 4 5 6 6 6 6 6 6 7
2 2 2 2 2 2 2 2 1 1 1 1 1 0 0 0 0 1 1 1 1 1 1 3 4 5 5 5 5 6 6 5 5 5 5 5 6 6 6 6 6 6 7
3 2 2 2 2 2 2 2 2 1 1 2 1 1 1 1 0 0 1 0 0 0 1 1 1 3 5 6 6 7 7 6 5 5 5 6 6 6 6 6 6 6 6
3 3 2 2 3 3 3 3 2 2 1 2 1 1 1 1 1 1 0 0 0 1 0 1 1 1 2 5 7 7 7 7 7 6 6 7 7 7 7 6 7 7 7
3 3 3 3 3 3 3 3 3 2 1 1 2 1 1 2 1 1 0 1 1 0 0 1 1 1 1 1 4 7 7 8 8 8 8 7 8 8 8 7 7 8 8
3 3 4 3 3 3 3 4 4 4 3 2 2 2 2 2 2 1 1 1 1 1 1 1 1 1 2 2 3 5 7 8 8 8 9 8 8 9 9 8 8 9 9
3 3 4 4 3 3 3 4 4 3 4 3 2 1 1 2 2 2 2 1 1 1 2 2 1 2 2 2 3 5 7 7 8 8 9 9 10 10 10 9 9 10 10
3 3 4 3 3 3 3 3 3 3 3 3 3 2 2 1 2 2 3 2 2 2 2 2 2 2 2 2 3 4 6 7 7 7 8 9 10 10 10 10 10 11 11
2 3 3 3 3 3 3 3 4 4 4 3 3 2 3 3 3 3 3 3 3 2 2 2 2 3 2 2 4 6 7 7 8 8 8 9 9 9 10 10 11 11 12
3 4 3 3 3 3 3 3 4 4 4 4 4 3 3 3 2 2 2 2 2 2 2 2 3 3 3 2 3 6 7 8 8 8 8 8 9 9 10 11 11 12 12
4 4 4 4 3 3 3 3 3 3 3 4 4 3 3 3 2 2 3 2 2 2 3 4 2 3 2 2 4 5 5 8 8 8 8 8 8 9 10 11 12 12 12
3 4 4 4 4 3 3 3 3 3 3 3 3 3 3 2 2 2 2 3 3 3 4 3 2 2 2 2 4 3 3 6 7 7 7 8 9 10 10 11 12 13 13
3 4 4 4 3 3 3 3 2 2 3 3 2 3 3 2 2 2 2 3 3 4 4 3 3 2 2 2 4 3 3 6 6 7 8 8 9 10 10 11 12 13 13
3 4 4 4 4 3 3 3 3 3 4 3 3 3 4 3 2 2 2 2 3 3 5 4 2 2 2 2 3 3 3 3 4 7 8 9 10 10 11 12 13 13 13
2 3 3 3 3 3 3 4 4 4 4 4 4 4 4 3 3 3 3 3 3 3 4 6 3 2 3 3 3 3 4 3 4 7 9 10 10 10 11 12 13 13 13
2 2 3 3 4 4 4 4 4 4 5 5 5 5 4 4 4 3 3 4 3 3 3 4 4 2 2 2 3 3 4 3 4 5 8 9 10 11 12 12 13 12 12
2 2 3 3 3 3 3 4 4 4 4 4 4 4 5 5 5 5 4 5 4 3 3 3 4 3 2 2 1 2 4 3 4 4 6 7 8 10 12 12 13 12 12
1 1 1 1 2 2 2 2 3 4 4 4 4 4 5 5 6 5 4 4 4 4 3 3 4 3 3 2 2 2 4 4 4 2 3 4 4 5 6 9 11 12 13
1 1 2 2 2 2 2 3 2 3 4 5 5 4 4 5 6 7 8 7 6 5 5 4 4 5 5 3 2 2 3 3 4 1 2 5 3 5 5 5 10 13 13
1 2 2 2 3 3 3 4 4 3 3 3 4 3 3 4 5 5 7 8 7 8 8 5 6 6 5 4 3 4 4 4 5 3 2 5 3 6 5 6 12 14 14
2 2 2 3 3 3 4 4 5 3 3 3 4 4 4 3 3 4 4 5 5 5 6 5 5 5 4 3 4 4 4 5 5 3 2 5 4 5 5 5 11 12 12
2 2 2 2 3 4 4 5 4 2 3 4 4 3 4 4 5 5 3 4 4 4 5 5 6 6 6 5 3 1 2 3 5 4 2 3 3 4 5 5 6 10 12
2 2 3 2 3 3 4 5 5 2 3 3 3 3 5 5 6 6 4 4 5 4 2 2 3 5 4 5 6 4 4 4 4 4 3 3 3 2 5 4 4 4 6
Wind_Direction
165 159 141 126 106 101 108 104 87 113 112 103 95 90 85 68 45 37 8 20 29 30 34 32 26 19 27 27 16 13 6 356 346 341 339 329 324 324 325 324 328 328 325
176 171 160 145 139 129 131 136 136 137 135 122 97 91 97 89 53 29 13 9 13 10 8 3 360 5 8 360 354 359 358 354 345 334 329 325 317 309 307 308 310 311 311
178 171 164 167 163 144 136 121 107 100 115 98 79 75 88 89 80 25 2 7 353 357 359 354 346 343 342 341 332 329 329 332 334 336 335 327 320 315 306 300 302 303 300
171 165 168 177 164 149 145 138 137 109 123 114 101 77 74 70 57 356 357 3 352 342 340 345 343 342 337 330 324 318 312 312 321 325 327 328 327 316 306 300 298 297 294
174 171 179 177 161 153 154 155 141 148 153 125 122 75 6 360 340 351 356 349 336 342 330 339 345 343 331 323 316 315 310 306 314 322 324 324 320 320 317 317 310 300 296
177 174 174 171 165 160 161 157 152 144 153 146 104 40 341 316 333 276 279 334 342 330 315 321 334 334 332 322 317 317 316 315 317 320 322 319 317 314 313 316 316 306 301
179 179 179 174 172 172 176 170 154 149 147 127 101 20 341 327 276 258 238 218 298 308 319 320 331 325 323 323 314 311 315 318 314 313 315 315 315 314 313 318 322 318 314
186 187 184 184 183 177 173 173 165 155 164 159 144 128 329 326 324 309 260 214 230 252 284 307 312 306 299 306 309 307 306 310 311 313 311 310 310 309 309 311 316 319 316
191 191 191 186 184 182 189 191 183 172 180 190 178 159 169 230 296 308 275 249 241 237 257 277 284 293 291 283 289 304 306 306 307 307 311 308 307 306 305 307 309 309 307
193 191 187 187 188 192 200 200 195 188 174 191 201 209 191 166 181 283 300 288 274 250 247 254 266 275 282 278 286 299 306 305 303 305 309 312 311 308 305 305 306 303 305
199 194 187 186 187 196 204 198 191 192 191 195 188 178 185 191 187 194 260 287 302 267 249 244 247 259 274 274 274 291 302 299 298 300 306 308 308 308 307 306 304 303 302
204 199 191 193 193 192 197 203 198 193 199 201 203 196 185 185 192 195 227 256 269 269 262 244 242 247 256 263 277 294 292 290 289 292 296 299 302 304 307 307 304 302 300
209 209 197 197 200 201 197 197 197 199 201 200 209 218 219 222 193 190 207 244 265 278 275 255 236 242 253 259 274 288 283 285 283 287 290 292 294 298 301 303 303 301 300
212 199 197 198 200 198 194 195 200 207 204 207 214 213 221 231 212 203 195 196 261 275 258 257 249 235 249 259 277 287 278 281 281 283 285 289 292 294 297 298 298 300 298
210 194 194 199 200 196 195 192 205 211 202 208 211 211 222 235 223 220 213 204 208 252 264 245 246 249 255 257 285 276 270 284 282 282 286 289 291 292 293 294 295 296 298
201 192 192 195 199 201 200 198 207 208 204 217 212 208 225 237 231 219 215 220 217 225 254 254 241 261 268 280 289 278 266 288 280 281 284 288 288 289 291 292 292 293 294
201 197 195 192 198 205 205 205 213 206 213 222 219 216 229 227 226 226 220 217 222 219 247 271 258 267 250 271 292 286 269 260 270 275 280 285 285 286 289 291 291 290 291
209 206 196 194 201 205 205 208 215 213 216 221 224 222 229 223 226 222 217 222 225 222 232 263 273 265 257 268 284 286 287 277 273 277 280 282 282 284 288 291 291 290 289
216 208 202 204 208 207 210 213 214 218 221 225 224 222 225 217 227 225 220 223 227 231 231 246 268 264 266 280 294 290 285 277 280 279 282 282 279 282 285 288 290 288 287
224 224 219 214 214 213 216 217 219 223 228 233 233 231 229 222 227 225 224 223 220 224 229 239 258 266 261 266 273 288 296 288 287 285 283 280 279 283 284 286 288 286 285
229 235 232 233 234 224 227 226 228 227 228 236 238 236 234 233 235 229 226 219 214 221 226 235 250 259 257 261 262 267 282 298 287 270 289 277 276 275 278 280 282 280 280
285 257 246 235 238 246 251 240 234 236 234 233 239 241 239 235 238 238 238 232 221 220 227 231 243 248 255 251 256 259 276 300 295 285 293 283 266 271 269 262 276 278 278
263 258 255 248 252 259 254 251 242 238 243 246 245 247 249 245 234 235 238 240 239 238 233 227 237 243 247 240 237 255 257 258 262 269 288 280 269 266 267 270 279 278 279
253 258 264 261 264 274 267 259 250 243 250 255 252 247 248 252 246 241 235 237 242 246 245 239 240 245 244 237 227 240 255 266 272 260 236 268 280 277 282 275 279 278 279
260 261 265 264 263 276 272 267 260 257 257 262 262 258 250 245 251 244 242 244 250 259 262 249 250 257 260 256 244 233 246 265 277 267 218 250 278 290 286 275 277 283 285
261 265 267 266 263 276 280 273 263 258 262 269 267 258 252 252 255 244 234 231 247 257 250 261 261 267 264 256 247 230 224 238 258 269 220 229 262 298 295 277 275 282 285